User: anonymous   Login
Location: Caltech
(34.1382°N, 118.1253°W)
Time: 02:39:23
(UTC-07:00)
Language:

ADEOS II - Orbit

View from above orbital plane
View from above orbital plane
View from above satellite
View from above satellite

Ground track
Ground track

The orbit data is extracted from the following two-line orbital elements,

1 27597U 02056A   16208.83667595  .00000044  00000-0  35017-4 0  9997
2 27597  98.3246 187.0523 0001176 132.0734 228.0547 14.27223754709017
Epoch (UTC): 26 July 2016 20:04:48
Eccentricity: 0.0001176
inclination: 98.3246°
perigee height: 800 km
apogee height: 802 km
right ascension of ascending node: 187.0523°
argument of perigee: 132.0734°
revolutions per day: 14.27223754
mean anomaly at epoch: 228.0547°
orbit number at epoch: 70901

The dashed part of the orbit path shows where the satellite is in the earth's shadow,  

DLR